Weather in Pernik

Bulgaria     42°36′09″N   23°02′41″E
temp.,
°C
wind,
m/s
gust,
m/s
humid.,
%
clouds,
%
prec.,
mm/h
press.,
hPa
HPBL,
m
20 april, tue
tue2000:00+3nnw2599100 0.3 1013412
03:00+3nnw1499100 0.6 1013392
06:00+3w0298100 0.3 1014333
09:00+4se0189100 0.5 1015270
12:00+7nw237363 0.2 1015882
15:00+10w135897 0.8 10131324
18:00+9nnw136438 1.0 1013782
21:00+5ne117621 1.7 101510
21 april, wed
wed2100:00+4wsw118091 0.0 101710
03:00+3s118654 0.0 101810
06:00+2ssw008718 0.0 101810
09:00+6sw11745 0.0 1019230
12:00+11wsw22545 0.0 10181184
15:00+13wnw234595 0.4 10162055
18:00+11nnw345474 0.8 10171439
21:00+7ese016631 1.0 101910
22 april, thu
thu2200:00+5s00735 0.0 102110
03:00+4sse11805 0.0 102210
06:00+3s11831 0.0 102210
09:00+7ssw22715 0.0 1022206
12:00+12ssw34568 0.0 1020958
15:00+15ssw564220 0.0 10182176
18:00+14ssw5751100 0.0 1017876
21:00+9s2269100 0.0 101914
23 april, fri
fri2300:00+9se2271100 0.0 101916
03:00+8sse1173100 0.0 101912
06:00+7nne0177100 0.0 101910
09:00+7sw0190100 1.1 1021114
12:00+9sw118199 0.1 1021473
15:00+10nw127996 0.3 1021529
18:00+11nnw337091 0.2 1020886
21:00+7nne3384100 0.2 102346
24 april, sat
sat2400:00+5n2285100 0.0 102418
03:00+4n228987 0.0 102421
06:00+4n238997 0.0 1023113
09:00+6n2472100 0.0 1023482
12:00+8nne2358100 0.1 10221014
15:00+7ssw1180100 1.1 1022724
18:00+6wnw0192100 2.6 1020264
21:00+5wsw1196100 5.6 102187